Location: Bernay
(48.6766°N, 2.9386°E)
Time: 12:13:33
(UTC+00:00)

Resurs 01 Rocket - Pass Details

Date: 12 January 2026
Orbit: 628 x 635 km, 97.7° (Epoch: 16 February)

Event Time Altitude Azimuth Distance (km) Brightness Sun altitude
Exits shadow 17:15:56 11° 86° (E) 1,923 3.5 -9.6°
Maximum altitude 17:17:52 14° 58° (ENE) 1,732 3.2 -9.9°
Drops below altitude 10° 17:20:13 10° 26° (NNE) 2,016 3.8 -10.3°
Sets 17:23:18 0° 2° (N) 2,930 4.8 -10.8°
